Asbury Park, New Jersey
Current Conditions -  °F | °C
As of 6:55 AM on Saturday 20 Dec 2014 (Local Time) from KBLM Reporting Station
Overcast Overcast  
Wind Chill: 23°   Ceiling: 2600
Heat Index: 30°   Visibility: 10mi
Dew Point: 18°   Wind: 7mph
Humidity: 60%   Direction: 300°WNW
Pressure: 30.25"   Gusts: NA
Location:  40.22°N, 74.01°W
Report Text: KBLM 201155Z AUTO 30006KT 10SM OVC026 M01/M08 A3025 RMK AO1 10000 21010 52014
Loading
Personal Weather Stations






























Interactive Weather Map New forecast layout! Learn more

10-Day Weather Forecast

Advertisements
Track Severe Weather on mobile